PKPAS WIHH-WIKK

Flight info

Callsign PKPAS
Flight time 1h 14m
Altitude 25000
Route ABASA W14 ALTAR
Aircraft PC12/L-SDFGRWY/S

Departure

Time 2026-05-08 09:35
Airport Halim Perdanakusuma International Airport (WIHH)

Arrival

Time 2026-05-08 10:49
Airport Depati Amir Airport (WIKK)
Time Latitude Longitude Altitude Speed Heading
2026-05-08 09:22 -6.26675 106.88464 89 ft 0 kts 335°
2026-05-08 09:27 -6.26676 106.88464 89 ft 0 kts 335°
2026-05-08 09:31 -6.26669 106.88459 91 ft 3 kts 292°
2026-05-08 09:31 -6.26675 106.88455 89 ft 4 kts 140°
2026-05-08 09:31 -6.26705 106.88476 89 ft 6 kts 157°
2026-05-08 09:32 -6.26756 106.88479 90 ft 9 kts 160°
2026-05-08 09:32 -6.26808 106.88502 88 ft 8 kts 156°
2026-05-08 09:32 -6.26852 106.88522 88 ft 7 kts 155°
2026-05-08 09:32 -6.26891 106.88541 89 ft 6 kts 153°
2026-05-08 09:33 -6.26908 106.88569 88 ft 5 kts 74°
2026-05-08 09:33 -6.26904 106.88581 88 ft 0 kts 66°
2026-05-08 09:33 -6.26876 106.88640 88 ft 28 kts 64°
2026-05-08 09:33 -6.26734 106.88947 92 ft 67 kts 65°
2026-05-08 09:34 -6.26496 106.89449 101 ft 89 kts 71°
2026-05-08 09:34 -6.26224 106.90055 224 ft 98 kts 72°
2026-05-08 09:34 -6.25936 106.90663 474 ft 97 kts 71°
2026-05-08 09:34 -6.25639 106.91319 655 ft 112 kts 68°
2026-05-08 09:35 -6.25284 106.92098 811 ft 134 kts 66°
2026-05-08 09:35 -6.24863 106.93019 981 ft 155 kts 63°
2026-05-08 09:35 -6.24392 106.94054 1187 ft 169 kts 63°
2026-05-08 09:35 -6.23766 106.95052 1553 ft 169 kts 44°
2026-05-08 09:36 -6.22790 106.95660 1914 ft 166 kts 19°
2026-05-08 09:36 -6.21675 106.95946 2276 ft 166 kts 13°
2026-05-08 09:36 -6.20537 106.96208 2642 ft 169 kts 13°
2026-05-08 09:36 -6.19381 106.96482 2997 ft 172 kts 14°
2026-05-08 09:37 -6.18208 106.96762 3351 ft 174 kts 14°
2026-05-08 09:37 -6.17019 106.97046 3711 ft 177 kts 14°
2026-05-08 09:37 -6.15831 106.97329 4060 ft 180 kts 14°
2026-05-08 09:37 -6.14605 106.97623 4429 ft 182 kts 15°
2026-05-08 09:38 -6.13361 106.97920 4786 ft 185 kts 14°
2026-05-08 09:38 -6.12101 106.98220 5145 ft 187 kts 15°
2026-05-08 09:38 -6.10829 106.98524 5497 ft 188 kts 14°
2026-05-08 09:38 -6.09551 106.98829 5863 ft 189 kts 15°
2026-05-08 09:39 -6.08270 106.99134 6223 ft 189 kts 16°
2026-05-08 09:39 -6.06985 106.99440 6582 ft 190 kts 16°
2026-05-08 09:39 -6.05700 106.99746 6929 ft 191 kts 15°
2026-05-08 09:39 -6.04405 107.00054 7279 ft 192 kts 15°
2026-05-08 09:40 -6.03102 107.00365 7642 ft 193 kts 15°
2026-05-08 09:40 -6.01788 107.00677 7995 ft 195 kts 15°
2026-05-08 09:40 -6.00468 107.00992 8356 ft 195 kts 15°
2026-05-08 09:40 -5.99143 107.01307 8721 ft 196 kts 15°
2026-05-08 09:41 -5.97822 107.01622 9105 ft 198 kts 15°
2026-05-08 09:41 -5.96479 107.01942 9479 ft 199 kts 15°
2026-05-08 09:41 -5.95127 107.02264 9834 ft 200 kts 15°
2026-05-08 09:41 -5.93772 107.02586 10171 ft 200 kts 16°
2026-05-08 09:42 -5.92411 107.02910 10518 ft 201 kts 15°
2026-05-08 09:42 -5.91052 107.03234 10863 ft 201 kts 15°
2026-05-08 09:42 -5.89691 107.03557 11213 ft 201 kts 16°
2026-05-08 09:42 -5.88328 107.03881 11574 ft 201 kts 16°
2026-05-08 09:43 -5.86964 107.04206 11938 ft 201 kts 16°
2026-05-08 09:43 -5.85605 107.04530 12303 ft 201 kts 16°
2026-05-08 09:43 -5.84264 107.04849 12668 ft 200 kts 16°
2026-05-08 09:43 -5.82906 107.05172 13037 ft 200 kts 16°
2026-05-08 09:44 -5.81548 107.05495 13416 ft 200 kts 16°
2026-05-08 09:44 -5.80191 107.05818 13769 ft 200 kts 16°
2026-05-08 09:44 -5.78835 107.06140 14107 ft 200 kts 16°
2026-05-08 09:44 -5.77482 107.06462 14449 ft 200 kts 16°
2026-05-08 09:45 -5.76132 107.06783 14792 ft 199 kts 16°
2026-05-08 09:45 -5.74785 107.07104 15139 ft 198 kts 16°
2026-05-08 09:45 -5.73444 107.07423 15487 ft 198 kts 16°
2026-05-08 09:45 -5.72104 107.07741 15837 ft 197 kts 16°
2026-05-08 09:46 -5.70772 107.08058 16199 ft 197 kts 16°
2026-05-08 09:46 -5.69441 107.08374 16568 ft 196 kts 16°
2026-05-08 09:46 -5.68122 107.08688 16931 ft 195 kts 16°
2026-05-08 09:46 -5.66832 107.08994 17280 ft 195 kts 16°
2026-05-08 09:47 -5.65497 107.09312 17591 ft 198 kts 17°
2026-05-08 09:47 -5.64154 107.09632 17911 ft 199 kts 17°
2026-05-08 09:47 -5.62802 107.09953 18218 ft 200 kts 17°
2026-05-08 09:47 -5.61448 107.10275 18500 ft 200 kts 16°
2026-05-08 09:48 -5.60091 107.10598 18790 ft 201 kts 16°
2026-05-08 09:48 -5.58725 107.10923 19065 ft 201 kts 16°
2026-05-08 09:48 -5.57362 107.11247 19339 ft 202 kts 16°
2026-05-08 09:48 -5.55997 107.11571 19612 ft 202 kts 16°
2026-05-08 09:49 -5.55087 107.11788 19788 ft 202 kts 16°
2026-05-08 09:49 -5.53270 107.12220 20144 ft 203 kts 16°
2026-05-08 09:49 -5.51894 107.12547 20414 ft 203 kts 16°
2026-05-08 09:49 -5.50515 107.12875 20689 ft 204 kts 16°
2026-05-08 09:50 -5.49135 107.13203 20950 ft 204 kts 16°
2026-05-08 09:50 -5.48200 107.13425 21128 ft 204 kts 16°
2026-05-08 09:50 -5.46812 107.13755 21393 ft 205 kts 16°
2026-05-08 09:50 -5.44975 107.14191 21741 ft 205 kts 16°
2026-05-08 09:51 -5.44034 107.14415 21918 ft 205 kts 16°
2026-05-08 09:51 -5.42657 107.14742 22176 ft 206 kts 16°
2026-05-08 09:51 -5.41264 107.15074 22433 ft 206 kts 16°
2026-05-08 09:51 -5.39865 107.15406 22692 ft 207 kts 15°
2026-05-08 09:52 -5.38465 107.15739 22953 ft 207 kts 16°
2026-05-08 09:52 -5.37059 107.16073 23208 ft 208 kts 15°
2026-05-08 09:52 -5.35652 107.16407 23447 ft 208 kts 15°
2026-05-08 09:52 -5.34240 107.16742 23659 ft 208 kts 15°
2026-05-08 09:53 -5.32826 107.17078 23858 ft 209 kts 15°
2026-05-08 09:53 -5.31406 107.17415 24059 ft 210 kts 16°
2026-05-08 09:53 -5.29983 107.17754 24267 ft 211 kts 15°
2026-05-08 09:53 -5.28554 107.18093 24475 ft 211 kts 15°
2026-05-08 09:54 -5.27119 107.18434 24669 ft 212 kts 16°
2026-05-08 09:54 -5.25683 107.18776 24810 ft 214 kts 16°
2026-05-08 09:54 -5.24200 107.19129 24811 ft 223 kts 15°
2026-05-08 09:54 -5.22667 107.19494 24815 ft 230 kts 16°
2026-05-08 09:55 -5.20579 107.19991 24820 ft 236 kts 15°
2026-05-08 09:55 -5.19494 107.20248 24823 ft 238 kts 15°
2026-05-08 09:55 -5.17888 107.20630 24820 ft 242 kts 15°
2026-05-08 09:55 -5.16244 107.21020 24825 ft 244 kts 15°
2026-05-08 09:56 -5.14582 107.21414 24826 ft 246 kts 15°
2026-05-08 09:56 -5.12907 107.21812 24828 ft 248 kts 15°
2026-05-08 09:56 -5.11235 107.22208 24828 ft 250 kts 15°
2026-05-08 09:56 -5.09520 107.22615 24829 ft 251 kts 15°
2026-05-08 09:57 -5.06100 107.23427 24828 ft 253 kts 15°
2026-05-08 09:57 -5.04380 107.23835 24828 ft 254 kts 15°
2026-05-08 09:57 -5.02660 107.24244 24829 ft 254 kts 15°
2026-05-08 09:58 -5.00937 107.24653 24827 ft 255 kts 15°
2026-05-08 09:58 -4.99209 107.25063 24829 ft 255 kts 15°
2026-05-08 09:58 -4.97481 107.25473 24829 ft 255 kts 15°
2026-05-08 09:58 -4.95753 107.25883 24831 ft 255 kts 15°
2026-05-08 09:59 -4.94023 107.26291 24827 ft 255 kts 15°
2026-05-08 09:59 -4.92284 107.26677 24829 ft 256 kts 14°
2026-05-08 09:59 -4.90564 107.27050 24826 ft 256 kts 14°
2026-05-08 09:59 -4.88829 107.27435 24826 ft 255 kts 15°
2026-05-08 10:00 -4.87094 107.27823 24829 ft 255 kts 15°
2026-05-08 10:00 -4.85361 107.28209 24829 ft 255 kts 15°
2026-05-08 10:00 -4.83627 107.28594 24826 ft 255 kts 14°
2026-05-08 10:00 -4.81888 107.28980 24828 ft 255 kts 15°
2026-05-08 10:01 -4.80156 107.29365 24828 ft 255 kts 15°
2026-05-08 10:01 -4.78425 107.29750 24828 ft 255 kts 15°
2026-05-08 10:01 -4.76690 107.30135 24829 ft 255 kts 15°
2026-05-08 10:01 -4.74957 107.30521 24832 ft 255 kts 15°
2026-05-08 10:02 -4.73225 107.30906 24830 ft 255 kts 15°
2026-05-08 10:02 -4.71492 107.31291 24832 ft 255 kts 15°
2026-05-08 10:02 -4.69784 107.31670 24834 ft 255 kts 15°
2026-05-08 10:02 -4.68052 107.32055 24832 ft 255 kts 15°
2026-05-08 10:03 -4.66318 107.32440 24835 ft 255 kts 15°
2026-05-08 10:03 -4.64590 107.32824 24835 ft 255 kts 15°
2026-05-08 10:03 -4.62856 107.33209 24835 ft 255 kts 15°
2026-05-08 10:03 -4.61126 107.33593 24833 ft 255 kts 15°
2026-05-08 10:04 -4.59392 107.33978 24833 ft 255 kts 15°
2026-05-08 10:04 -4.57661 107.34363 24833 ft 255 kts 15°
2026-05-08 10:04 -4.55926 107.34748 24834 ft 255 kts 15°
2026-05-08 10:04 -4.54195 107.35132 24834 ft 255 kts 15°
2026-05-08 10:05 -4.52466 107.35516 24833 ft 255 kts 15°
2026-05-08 10:05 -4.50735 107.35901 24834 ft 255 kts 15°
2026-05-08 10:05 -4.49004 107.36285 24838 ft 255 kts 15°
2026-05-08 10:05 -4.47271 107.36670 24837 ft 255 kts 15°
2026-05-08 10:06 -4.45562 107.37049 24835 ft 254 kts 15°
2026-05-08 10:06 -4.43835 107.37433 24838 ft 254 kts 15°
2026-05-08 10:06 -4.42107 107.37816 24837 ft 254 kts 15°
2026-05-08 10:06 -4.40375 107.38200 24837 ft 254 kts 15°
2026-05-08 10:07 -4.38645 107.38585 24838 ft 254 kts 15°
2026-05-08 10:07 -4.36915 107.38969 24837 ft 254 kts 15°
2026-05-08 10:07 -4.35186 107.39353 24840 ft 254 kts 15°
2026-05-08 10:07 -4.33456 107.39737 24840 ft 254 kts 15°
2026-05-08 10:08 -4.31743 107.40117 24842 ft 254 kts 15°
2026-05-08 10:08 -4.29999 107.40504 24840 ft 254 kts 15°
2026-05-08 10:08 -4.28271 107.40888 24841 ft 254 kts 15°
2026-05-08 10:08 -4.26545 107.41271 24842 ft 254 kts 15°
2026-05-08 10:09 -4.24816 107.41655 24841 ft 254 kts 15°
2026-05-08 10:09 -4.23111 107.42033 24840 ft 254 kts 15°
2026-05-08 10:09 -4.21378 107.42417 24840 ft 254 kts 15°
2026-05-08 10:09 -4.19653 107.42800 24839 ft 254 kts 15°
2026-05-08 10:10 -4.17925 107.43184 24840 ft 254 kts 15°
2026-05-08 10:10 -4.16212 107.43564 24841 ft 254 kts 15°
2026-05-08 10:10 -4.14473 107.43950 24839 ft 254 kts 15°
2026-05-08 10:10 -4.12745 107.44333 24840 ft 254 kts 15°
2026-05-08 10:11 -4.11023 107.44715 24839 ft 254 kts 15°
2026-05-08 10:11 -4.09314 107.45095 24839 ft 254 kts 15°
2026-05-08 10:11 -4.07578 107.45480 24840 ft 254 kts 15°
2026-05-08 10:11 -4.07014 107.45605 24840 ft 253 kts 15°
2026-05-08 10:12 -4.02429 107.46622 24840 ft 253 kts 15°
2026-05-08 10:12 -4.00707 107.47004 24839 ft 253 kts 15°
2026-05-08 10:12 -3.98987 107.47386 24840 ft 253 kts 15°
2026-05-08 10:13 -3.98427 107.47510 24838 ft 253 kts 15°
2026-05-08 10:14 -3.88813 107.49642 24839 ft 254 kts 15°
2026-05-08 10:14 -3.87089 107.50024 24842 ft 254 kts 15°
2026-05-08 10:14 -3.85383 107.50402 24842 ft 254 kts 15°
2026-05-08 10:15 -3.83658 107.50785 24844 ft 254 kts 15°
2026-05-08 10:15 -3.81934 107.51168 24843 ft 254 kts 15°
2026-05-08 10:15 -3.80210 107.51549 24842 ft 254 kts 15°
2026-05-08 10:15 -3.78484 107.51932 24842 ft 254 kts 15°
2026-05-08 10:16 -3.76756 107.52315 24842 ft 254 kts 15°
2026-05-08 10:16 -3.75044 107.52693 24843 ft 253 kts 14°
2026-05-08 10:16 -3.73269 107.52799 24844 ft 257 kts 356°
2026-05-08 10:16 -3.71535 107.52351 24844 ft 260 kts 338°
2026-05-08 10:17 -3.69998 107.51382 24847 ft 263 kts 321°
2026-05-08 10:17 -3.68631 107.50159 24842 ft 264 kts 320°
2026-05-08 10:17 -3.67264 107.48929 24844 ft 264 kts 321°
2026-05-08 10:17 -3.65893 107.47703 24844 ft 264 kts 321°
2026-05-08 10:18 -3.64523 107.46477 24846 ft 264 kts 321°
2026-05-08 10:18 -3.63151 107.45247 24842 ft 265 kts 320°
2026-05-08 10:18 -3.61793 107.44030 24841 ft 265 kts 321°
2026-05-08 10:18 -3.60416 107.42796 24841 ft 265 kts 321°
2026-05-08 10:19 -3.59040 107.41562 24844 ft 265 kts 320°
2026-05-08 10:19 -3.57666 107.40331 24843 ft 265 kts 320°
2026-05-08 10:19 -3.56289 107.39096 24843 ft 265 kts 320°
2026-05-08 10:20 -3.53556 107.36647 24842 ft 265 kts 321°
2026-05-08 10:20 -3.52183 107.35416 24844 ft 265 kts 321°
2026-05-08 10:20 -3.50806 107.34182 24842 ft 265 kts 321°
2026-05-08 10:20 -3.49434 107.32952 24844 ft 265 kts 320°
2026-05-08 10:21 -3.48060 107.31721 24844 ft 265 kts 320°
2026-05-08 10:21 -3.46686 107.30489 24843 ft 265 kts 320°
2026-05-08 10:21 -3.45310 107.29257 24847 ft 265 kts 321°
2026-05-08 10:21 -3.43936 107.28025 24848 ft 265 kts 321°
2026-05-08 10:22 -3.42563 107.26795 24847 ft 265 kts 321°
2026-05-08 10:22 -3.41189 107.25563 24846 ft 265 kts 321°
2026-05-08 10:22 -3.39815 107.24333 24846 ft 265 kts 321°
2026-05-08 10:22 -3.38442 107.23102 24844 ft 265 kts 321°
2026-05-08 10:23 -3.37067 107.21871 24847 ft 265 kts 321°
2026-05-08 10:23 -3.35694 107.20641 24845 ft 265 kts 321°
2026-05-08 10:23 -3.34321 107.19410 24847 ft 265 kts 321°
2026-05-08 10:23 -3.32946 107.18178 24846 ft 265 kts 321°
2026-05-08 10:24 -3.31574 107.16950 24846 ft 265 kts 321°
2026-05-08 10:24 -3.30217 107.15734 24846 ft 265 kts 321°
2026-05-08 10:24 -3.28847 107.14507 24821 ft 266 kts 321°
2026-05-08 10:24 -3.27447 107.13254 24614 ft 274 kts 321°
2026-05-08 10:25 -3.26008 107.11967 24399 ft 280 kts 321°
2026-05-08 10:25 -3.24539 107.10651 24182 ft 285 kts 321°
2026-05-08 10:25 -3.23054 107.09320 23968 ft 289 kts 320°
2026-05-08 10:25 -3.21548 107.07970 23749 ft 292 kts 320°
2026-05-08 10:26 -3.20031 107.06611 23531 ft 294 kts 320°
2026-05-08 10:26 -3.18500 107.05241 23311 ft 295 kts 320°
2026-05-08 10:26 -3.16965 107.03866 23053 ft 296 kts 320°
2026-05-08 10:26 -3.15428 107.02489 22796 ft 297 kts 320°
2026-05-08 10:27 -3.13886 107.01108 22536 ft 298 kts 320°
2026-05-08 10:27 -3.12338 106.99723 22291 ft 299 kts 320°
2026-05-08 10:27 -3.10789 106.98336 22045 ft 299 kts 320°
2026-05-08 10:27 -3.09238 106.96947 21801 ft 300 kts 320°
2026-05-08 10:28 -3.07686 106.95557 21554 ft 300 kts 320°
2026-05-08 10:28 -3.06132 106.94166 21311 ft 300 kts 320°
2026-05-08 10:28 -3.04577 106.92775 21073 ft 299 kts 320°
2026-05-08 10:28 -3.03044 106.91403 20836 ft 299 kts 320°
2026-05-08 10:29 -3.01494 106.90015 20597 ft 299 kts 320°
2026-05-08 10:29 -2.99947 106.88630 20364 ft 298 kts 320°
2026-05-08 10:29 -2.98404 106.87250 20130 ft 297 kts 320°
2026-05-08 10:29 -2.96865 106.85872 19897 ft 297 kts 320°
2026-05-08 10:30 -2.95329 106.84497 19668 ft 296 kts 320°
2026-05-08 10:30 -2.93796 106.83126 19441 ft 295 kts 320°
2026-05-08 10:30 -2.92267 106.81757 19214 ft 295 kts 320°
2026-05-08 10:30 -2.90732 106.80384 18991 ft 297 kts 320°
2026-05-08 10:31 -2.89189 106.79004 18765 ft 298 kts 320°
2026-05-08 10:31 -2.87639 106.77617 18548 ft 299 kts 320°
2026-05-08 10:31 -2.86103 106.76242 18332 ft 300 kts 320°
2026-05-08 10:31 -2.84533 106.74837 18105 ft 300 kts 320°
2026-05-08 10:32 -2.82972 106.73441 17852 ft 301 kts 320°
2026-05-08 10:32 -2.81405 106.72040 17594 ft 303 kts 320°
2026-05-08 10:32 -2.79852 106.70650 17354 ft 304 kts 320°
2026-05-08 10:32 -2.78272 106.69236 17105 ft 305 kts 320°
2026-05-08 10:33 -2.76688 106.67820 16856 ft 305 kts 320°
2026-05-08 10:33 -2.75108 106.66406 16610 ft 305 kts 320°
2026-05-08 10:33 -2.73526 106.64991 16369 ft 305 kts 320°
2026-05-08 10:33 -2.71945 106.63577 16125 ft 304 kts 320°
2026-05-08 10:34 -2.70368 106.62166 15888 ft 304 kts 320°
2026-05-08 10:34 -2.68796 106.60761 15649 ft 302 kts 320°
2026-05-08 10:34 -2.67231 106.59361 15415 ft 300 kts 320°
2026-05-08 10:34 -2.65677 106.57971 15111 ft 301 kts 320°
2026-05-08 10:35 -2.64130 106.56589 14647 ft 295 kts 320°
2026-05-08 10:35 -2.62611 106.55230 14192 ft 291 kts 320°
2026-05-08 10:35 -2.61133 106.53909 13756 ft 287 kts 320°
2026-05-08 10:35 -2.59663 106.52594 13260 ft 284 kts 320°
2026-05-08 10:36 -2.58182 106.51270 12759 ft 283 kts 320°
2026-05-08 10:36 -2.56717 106.49959 12267 ft 281 kts 320°
2026-05-08 10:36 -2.55260 106.48657 11783 ft 280 kts 320°
2026-05-08 10:36 -2.53809 106.47359 11310 ft 279 kts 320°
2026-05-08 10:37 -2.52363 106.46067 10838 ft 278 kts 320°
2026-05-08 10:37 -2.50924 106.44780 10375 ft 277 kts 320°
2026-05-08 10:37 -2.49490 106.43497 9920 ft 275 kts 320°
2026-05-08 10:37 -2.48067 106.42224 9441 ft 275 kts 320°
2026-05-08 10:38 -2.46650 106.40958 8943 ft 273 kts 319°
2026-05-08 10:38 -2.45237 106.39695 8452 ft 272 kts 319°
2026-05-08 10:38 -2.43845 106.38450 8177 ft 263 kts 320°
2026-05-08 10:38 -2.42502 106.37249 7935 ft 255 kts 319°
2026-05-08 10:39 -2.41193 106.36079 7694 ft 249 kts 319°
2026-05-08 10:39 -2.39932 106.34952 7460 ft 246 kts 319°
2026-05-08 10:39 -2.38665 106.33819 7221 ft 243 kts 319°
2026-05-08 10:39 -2.37411 106.32699 6989 ft 241 kts 319°
2026-05-08 10:40 -2.36164 106.31583 6757 ft 240 kts 319°
2026-05-08 10:40 -2.34925 106.30476 6522 ft 238 kts 319°
2026-05-08 10:40 -2.33697 106.29379 6298 ft 236 kts 319°
2026-05-08 10:40 -2.32485 106.28296 6062 ft 234 kts 319°
2026-05-08 10:41 -2.31351 106.27282 5776 ft 235 kts 319°
2026-05-08 10:41 -2.30140 106.26201 5413 ft 229 kts 319°
2026-05-08 10:41 -2.29013 106.25197 5065 ft 219 kts 319°
2026-05-08 10:41 -2.27866 106.24173 4698 ft 211 kts 319°
2026-05-08 10:42 -2.26779 106.23216 4329 ft 206 kts 319°
2026-05-08 10:42 -2.25733 106.22298 4019 ft 199 kts 319°
2026-05-08 10:42 -2.24675 106.21469 3770 ft 188 kts 334°
2026-05-08 10:42 -2.23481 106.21026 3525 ft 179 kts 345°
2026-05-08 10:43 -2.22302 106.20685 3286 ft 174 kts 346°
2026-05-08 10:43 -2.21142 106.20370 3045 ft 171 kts 346°
2026-05-08 10:43 -2.20007 106.20066 2804 ft 167 kts 346°
2026-05-08 10:43 -2.18895 106.19744 2563 ft 165 kts 345°
2026-05-08 10:44 -2.17796 106.19422 2316 ft 164 kts 345°
2026-05-08 10:44 -2.16699 106.19108 2072 ft 163 kts 345°
2026-05-08 10:44 -2.15615 106.18796 1838 ft 161 kts 346°
2026-05-08 10:44 -2.14597 106.18507 1728 ft 153 kts 346°
2026-05-08 10:45 -2.13897 106.18302 1724 ft 150 kts 346°
2026-05-08 10:45 -2.12918 106.18010 1719 ft 143 kts 346°
2026-05-08 10:45 -2.11983 106.17741 1716 ft 137 kts 347°
2026-05-08 10:45 -2.11072 106.17486 1715 ft 136 kts 347°
2026-05-08 10:46 -2.10155 106.17227 1716 ft 137 kts 344°
2026-05-08 10:46 -2.09468 106.16588 1629 ft 140 kts 287°
2026-05-08 10:46 -2.09500 106.15664 1552 ft 132 kts 253°
2026-05-08 10:46 -2.09743 106.14781 1464 ft 131 kts 250°
2026-05-08 10:47 -2.09991 106.13911 1359 ft 132 kts 250°
2026-05-08 10:47 -2.10255 106.13025 1225 ft 133 kts 245°
2026-05-08 10:47 -2.10890 106.12446 1102 ft 119 kts 186°
2026-05-08 10:47 -2.11623 106.12579 944 ft 103 kts 156°
2026-05-08 10:48 -2.12247 106.12784 843 ft 93 kts 157°
2026-05-08 10:48 -2.12880 106.12984 657 ft 95 kts 158°
2026-05-08 10:48 -2.13510 106.13166 438 ft 94 kts 160°
2026-05-08 10:48 -2.14151 106.13336 370 ft 98 kts 160°
2026-05-08 10:49 -2.14815 106.13514 213 ft 97 kts 162°
2026-05-08 10:49 -2.15435 106.13682 117 ft 83 kts 160°
2026-05-08 10:49 -2.15929 106.13817 114 ft 63 kts 165°
2026-05-08 10:49 -2.16255 106.13908 116 ft 41 kts 166°
2026-05-08 10:50 -2.16478 106.13968 116 ft 20 kts 166°
2026-05-08 10:50 -2.16507 106.14035 116 ft 11 kts 76°
2026-05-08 10:50 -2.16489 106.14100 117 ft 9 kts 75°
2026-05-08 10:50 -2.16465 106.14146 116 ft 8 kts 18°
2026-05-08 10:51 -2.16402 106.14133 116 ft 12 kts 345°
2026-05-08 10:51 -2.16307 106.14107 116 ft 16 kts 345°
2026-05-08 10:51 -2.16184 106.14073 114 ft 21 kts 345°
2026-05-08 10:51 -2.16038 106.14033 109 ft 22 kts 344°
2026-05-08 10:52 -2.15896 106.13994 109 ft 20 kts 345°
2026-05-08 10:52 -2.15770 106.13960 108 ft 18 kts 345°
2026-05-08 10:52 -2.15665 106.13932 108 ft 10 kts 346°
2026-05-08 10:52 -2.15639 106.13972 108 ft 6 kts 78°
2026-05-08 10:53 -2.15636 106.13983 108 ft 0 kts 76°